Terminal Aerodrome Forecast
Issued by NWS Sterling, VA

Current Version | Previous Version | Graphics & Text | Print | Product List | Glossary On
Versions: 1 2 3 4 5 6 7 8 9 10 11 12 13 14 15 16 17 18 19 20 21 22 23 24 25 26 27 28 29 30 31 32
000
FTUS41 KLWX 051141
TAFIAD
TAF
KIAD 051141Z 0512/0618 35014KT 5SM -RAPL BR SCT011 OVC035
     FM051300 35014KT 2SM -SNPL OVC011
     FM051500 35010G17KT 1/2SM SN OVC004
     FM052000 35008KT 3SM -SN OVC015
     FM052300 32007KT P6SM OVC025
     FM060200 33004KT P6SM SCT040
     FM060600 35005KT P6SM FEW250=

USA.gov is the U.S. government's official web portal to all federal, state and local government web resources and services.